Location: ???
(60.6398°N, 46.9067°E)
Time: 19:12:09
(UTC+00:00)

ERS-2 - Pass Details

Date: 08 December 2019
Orbit: 495 x 499 km, 98.5° (Epoch: 17 January)

Event Time Altitude Azimuth Distance (km) Brightness Sun altitude
Exits shadow 12:57:01 - 12° (NNE) 2,407 5.2 -7.6°
Reaches altitude 10° 12:58:53 10° 360° (N) 1,712 4.5 -7.8°
Maximum altitude 13:01:51 24° 306° (NW) 1,085 4.1 -8.1°
Drops below altitude 10° 13:04:48 10° 252° (WSW) 1,702 6.3 -8.4°
Sets 13:07:09 0° 238° (WSW) 2,581 8.3 -8.7°
